Temp
9 9 9 9 9 9 9 9 9 9 9 8 8 8 8 8 7 7 7 7 7 6 6 6 6 6 5 5 5 5 4 4 4 4 4 4 3 3 3 3 3 2
9 9 9 9 9 9 9 9 9 9 9 8 8 8 8 7 7 7 7 7 7 6 6 6 6 6 5 5 5 4 4 4 4 4 4 3 3 3 3 3 3 2
9 9 9 9 9 9 9 9 9 9 9 8 8 8 8 7 7 7 7 7 7 7 6 6 6 6 5 5 5 4 4 4 4 4 4 3 3 3 3 3 2 2
9 9 9 9 9 9 9 9 9 9 9 8 8 8 8 7 7 7 7 7 7 7 6 6 6 5 5 5 4 4 4 4 4 3 3 3 3 3 3 3 2 2
9 9 9 9 8 8 8 8 8 8 8 8 8 8 8 7 7 7 7 7 7 6 6 6 6 5 5 4 4 4 4 4 4 3 3 3 3 3 3 2 2 2
9 9 9 9 8 8 8 8 8 8 8 8 8 8 8 7 7 6 7 7 6 6 6 5 5 5 5 4 4 4 4 4 4 3 3 3 3 3 2 2 2 1
9 9 9 8 8 8 8 8 8 8 8 8 8 8 8 7 7 6 6 6 6 6 5 5 5 5 5 4 4 4 4 4 3 3 3 3 3 2 2 2 1 1
9 9 9 8 8 8 8 8 8 8 8 8 8 8 7 7 7 6 6 6 6 5 5 5 5 5 4 4 4 3 3 3 3 3 3 3 2 2 2 1 1 1
9 9 9 9 9 8 8 8 7 7 7 7 7 7 7 7 6 6 6 5 5 5 5 5 4 4 4 4 4 3 3 3 3 3 2 2 2 2 1 1 1 1
9 9 9 9 9 8 8 7 7 7 7 7 7 7 7 6 6 6 5 5 5 5 5 4 4 4 4 4 3 3 2 2 2 2 2 2 1 1 1 1 0 0
9 9 9 9 9 8 7 7 7 7 7 7 7 7 6 6 6 5 5 5 5 5 4 4 4 4 3 3 4 3 3 2 2 2 1 1 1 1 1 0 0 0
9 9 9 9 8 8 7 7 7 6 6 6 6 6 6 6 6 6 5 5 5 5 4 4 4 3 3 3 3 3 3 3 2 2 1 1 1 1 1 0 0 0
8 8 8 8 8 7 7 7 6 6 6 6 6 6 6 6 6 6 5 5 5 5 4 4 4 3 2 2 3 3 3 3 2 2 1 1 1 1 1 0 0 -0
8 8 8 7 7 7 7 7 6 6 6 6 6 6 6 6 6 5 5 5 5 5 5 4 4 3 3 3 4 4 3 3 3 2 1 1 1 1 0 0 -0 -0
7 7 7 7 7 7 7 7 7 6 6 6 6 6 6 5 5 5 5 5 4 4 5 5 5 4 4 4 4 3 3 3 3 2 1 1 1 0 0 -0 -1 -1
7 7 7 7 7 7 6 6 6 6 6 6 6 6 5 5 5 5 5 4 4 4 4 4 4 4 4 3 3 2 2 2 2 2 1 1 1 0 -0 -1 -1 -1
6 6 6 6 6 6 6 6 6 6 6 6 6 6 5 5 5 5 4 4 4 4 4 4 3 3 3 3 2 2 2 2 2 1 1 1 0 -0 -0 -1 -1 -1
6 6 6 6 6 6 6 6 6 6 5 5 5 5 5 5 5 5 4 4 4 4 4 3 3 2 2 2 3 3 2 2 1 1 1 1 0 -0 -0 -1 -1 -1
6 6 6 6 6 6 6 6 6 5 5 5 5 5 5 5 5 5 4 4 4 4 3 3 2 1 2 2 2 2 2 2 1 1 1 0 0 0 -0 -0 -1 -1
5 5 5 6 6 6 6 6 5 5 5 5 5 5 5 5 5 5 4 4 4 4 4 3 1 0 1 1 2 2 2 1 1 1 1 0 0 0 -0 -0 -1 -1
5 5 5 5 5 5 5 5 5 5 5 5 5 5 5 5 5 4 4 4 4 4 4 3 2 1 1 1 1 2 1 1 1 1 1 0 0 -0 -0 -1 -1 -1
5 5 5 5 5 5 5 5 5 5 5 5 5 5 4 4 4 4 4 4 4 4 4 3 2 1 1 1 1 1 1 1 1 1 1 0 -0 -0 -1 -1 -1 -1
5 5 5 5 5 5 5 5 5 5 5 4 4 4 4 4 4 4 4 4 4 3 3 3 2 1 1 1 1 1 1 1 1 0 0 -0 -0 -1 -1 -1 -2 -2
5 5 5 5 4 4 4 4 4 4 4 4 4 4 4 4 4 4 4 3 3 3 3 2 2 1 1 1 1 1 1 0 0 -0 -0 -1 -1 -1 -2 -2 -2 -2
4 4 4 4 4 4 4 4 4 4 4 4 4 4 4 4 3 3 3 3 3 3 2 2 2 1 1 1 1 0 0 0 -0 -0 -1 -1 -1 -2 -2 -2 -3 -3
4 4 4 4 4 4 4 4 4 4 4 4 4 3 3 3 3 3 3 3 2 2 2 2 1 1 1 0 0 0 -0 -0 -0 -0 -1 -1 -2 -2 -2 -3 -3 -3
Height
3149 3150 3150 3150 3150 3151 3151 3151 3152 3152 3152 3153 3154 3155 3156 3156 3156 3155 3155 3155 3155 3155 3155 3155 3155 3155 3154 3154 3153 3153 3153 3153 3153 3152 3152 3152 3151 3151 3152 3152 3152 3152
3146 3146 3146 3146 3146 3147 3148 3148 3148 3148 3148 3149 3150 3150 3151 3151 3151 3151 3150 3151 3151 3151 3151 3151 3150 3150 3150 3150 3149 3149 3149 3149 3149 3148 3148 3148 3148 3148 3148 3148 3148 3148
3142 3142 3142 3142 3143 3143 3143 3144 3143 3144 3144 3145 3145 3146 3146 3147 3147 3146 3146 3146 3147 3147 3147 3147 3146 3146 3146 3146 3146 3145 3145 3145 3145 3145 3144 3144 3144 3144 3144 3144 3144 3144
3138 3138 3138 3139 3139 3139 3139 3139 3139 3140 3141 3141 3141 3142 3142 3143 3143 3142 3141 3141 3142 3143 3143 3143 3142 3142 3142 3142 3141 3141 3141 3141 3141 3140 3140 3140 3140 3140 3140 3140 3141 3141
3134 3134 3135 3135 3135 3135 3135 3135 3135 3136 3136 3137 3137 3138 3138 3139 3139 3138 3137 3136 3137 3138 3138 3138 3138 3138 3138 3138 3137 3136 3137 3137 3137 3136 3136 3136 3136 3136 3136 3137 3137 3137
3130 3130 3131 3131 3131 3131 3131 3131 3131 3132 3132 3132 3133 3133 3133 3134 3134 3133 3132 3132 3132 3133 3133 3133 3133 3133 3134 3133 3132 3132 3132 3133 3132 3132 3132 3132 3132 3132 3132 3133 3133 3133
3126 3126 3127 3127 3127 3127 3127 3127 3127 3127 3128 3128 3128 3128 3129 3129 3129 3128 3128 3127 3127 3128 3128 3128 3128 3128 3129 3129 3128 3128 3128 3128 3127 3128 3128 3128 3128 3128 3128 3129 3129 3130
3122 3122 3123 3122 3122 3122 3122 3122 3123 3123 3123 3123 3123 3124 3124 3124 3124 3123 3123 3123 3122 3122 3123 3123 3123 3123 3123 3124 3124 3124 3123 3123 3123 3123 3124 3124 3124 3124 3125 3125 3126 3126
3118 3118 3118 3117 3117 3118 3118 3118 3118 3119 3119 3119 3119 3119 3120 3119 3119 3119 3118 3118 3117 3118 3118 3118 3118 3118 3118 3119 3120 3120 3119 3119 3119 3119 3119 3119 3120 3120 3121 3122 3122 3123
3113 3113 3113 3112 3113 3113 3113 3114 3114 3114 3114 3114 3114 3115 3115 3115 3114 3114 3114 3113 3113 3113 3113 3113 3113 3113 3113 3113 3114 3115 3114 3114 3114 3114 3115 3115 3116 3116 3117 3118 3119 3119
3108 3108 3108 3108 3108 3108 3108 3109 3109 3109 3110 3110 3110 3110 3110 3110 3109 3109 3109 3108 3108 3108 3108 3108 3108 3108 3108 3107 3108 3109 3109 3109 3108 3109 3110 3110 3111 3112 3113 3114 3115 3115
3104 3104 3103 3103 3103 3103 3104 3104 3104 3105 3105 3105 3105 3105 3106 3105 3105 3104 3104 3104 3104 3103 3103 3103 3103 3103 3102 3102 3103 3104 3104 3103 3103 3104 3105 3106 3107 3108 3109 3110 3111 3111
3099 3099 3099 3099 3099 3099 3100 3100 3100 3100 3100 3100 3101 3100 3101 3100 3100 3100 3099 3099 3099 3099 3099 3098 3098 3099 3099 3098 3099 3099 3099 3099 3099 3100 3100 3102 3103 3104 3106 3106 3107 3108
3095 3095 3095 3095 3095 3096 3096 3096 3096 3096 3096 3096 3096 3095 3096 3095 3095 3095 3094 3094 3094 3094 3094 3094 3094 3095 3095 3095 3095 3094 3094 3094 3095 3095 3096 3098 3099 3101 3102 3103 3103 3104
3091 3091 3091 3091 3091 3092 3092 3092 3091 3091 3091 3091 3090 3090 3090 3090 3090 3090 3090 3090 3090 3090 3090 3090 3090 3091 3091 3090 3090 3090 3090 3090 3091 3091 3093 3094 3096 3097 3098 3099 3099 3100
3087 3087 3087 3087 3087 3087 3087 3087 3087 3087 3086 3086 3086 3086 3086 3086 3086 3086 3086 3086 3087 3086 3086 3086 3086 3086 3086 3086 3086 3086 3086 3087 3087 3088 3090 3091 3092 3093 3094 3095 3096 3097
3084 3084 3084 3084 3084 3084 3084 3083 3083 3083 3083 3083 3082 3082 3082 3082 3082 3082 3082 3082 3082 3082 3082 3082 3082 3082 3082 3083 3083 3083 3083 3084 3084 3085 3087 3088 3089 3090 3091 3092 3092 3093
3081 3081 3081 3081 3080 3080 3080 3080 3080 3080 3080 3079 3079 3079 3078 3078 3078 3078 3078 3078 3078 3078 3079 3079 3079 3079 3080 3080 3080 3080 3081 3081 3082 3083 3084 3085 3086 3086 3087 3088 3089 3089
3078 3078 3078 3077 3077 3077 3077 3077 3077 3077 3076 3076 3076 3076 3076 3075 3075 3075 3075 3075 3075 3075 3075 3075 3076 3077 3077 3077 3077 3078 3078 3078 3079 3080 3081 3082 3082 3083 3084 3084 3085 3085
3075 3075 3075 3074 3074 3074 3074 3074 3074 3074 3073 3073 3073 3073 3073 3073 3073 3072 3072 3072 3072 3072 3072 3073 3074 3075 3075 3075 3075 3075 3075 3075 3076 3077 3078 3079 3079 3080 3081 3081 3081 3081
3072 3072 3072 3072 3071 3071 3071 3071 3071 3070 3070 3070 3070 3070 3070 3070 3070 3069 3069 3069 3069 3069 3069 3070 3071 3072 3072 3072 3072 3072 3072 3073 3073 3074 3075 3076 3076 3077 3077 3077 3077 3077
3069 3069 3069 3069 3069 3068 3068 3068 3068 3067 3067 3067 3067 3067 3067 3067 3067 3066 3066 3066 3066 3066 3067 3067 3068 3068 3069 3069 3069 3069 3069 3070 3070 3071 3072 3073 3073 3073 3073 3073 3073 3072
3066 3066 3066 3066 3066 3066 3065 3065 3065 3065 3065 3064 3064 3064 3064 3064 3064 3064 3064 3064 3064 3064 3064 3064 3065 3065 3065 3066 3066 3066 3066 3067 3068 3069 3069 3069 3070 3069 3069 3069 3068 3068
3063 3063 3064 3063 3063 3063 3063 3062 3062 3062 3062 3062 3062 3062 3062 3062 3062 3061 3061 3061 3061 3061 3061 3061 3062 3062 3062 3063 3063 3063 3064 3065 3065 3065 3066 3065 3065 3065 3064 3064 3063 3063
3060 3060 3060 3060 3060 3060 3060 3059 3059 3059 3059 3059 3059 3059 3059 3059 3059 3059 3059 3059 3059 3059 3059 3059 3059 3059 3060 3060 3061 3061 3061 3061 3061 3061 3061 3060 3060 3060 3059 3059 3058 3058
3057 3057 3057 3057 3057 3057 3056 3056 3056 3056 3056 3056 3056 3056 3056 3056 3056 3056 3056 3056 3056 3056 3056 3057 3057 3057 3057 3057 3057 3057 3057 3056 3056 3056 3056 3056 3055 3055 3054 3054 3054 3054
Wind_Speed
34 35 36 36 37 37 38 39 40 40 41 40 40 40 40 40 40 41 42 42 41 40 39 39 38 37 36 36 36 36 36 35 34 33 31 30 29 28 27 26 26 26
35 35 36 37 37 37 37 38 39 39 39 39 40 40 41 41 41 42 43 43 42 42 41 40 39 39 38 37 37 37 37 36 35 34 33 31 30 29 28 27 27 28
36 36 36 37 37 37 37 38 39 39 39 39 39 40 40 40 41 42 44 43 42 42 41 40 40 39 38 38 38 38 38 37 35 34 33 32 32 30 29 28 29 29
37 37 37 37 37 37 38 38 39 39 39 39 39 40 40 40 40 42 44 44 42 41 41 40 40 40 38 38 39 39 38 37 36 35 35 34 32 31 30 30 30 30
38 38 38 37 38 38 39 39 39 40 39 39 39 39 40 40 40 42 44 44 43 41 40 40 40 40 39 39 40 40 39 38 37 36 35 34 33 32 31 31 31 31
38 39 38 38 39 39 40 40 40 40 40 40 39 39 39 39 40 42 44 44 43 42 41 41 41 40 40 40 40 40 39 38 37 36 36 34 33 33 32 32 32 32
39 39 38 38 39 40 41 42 41 40 40 40 40 39 39 39 40 42 43 43 43 43 42 42 42 41 41 41 40 40 39 38 38 37 36 35 34 34 34 33 33 32
40 40 39 40 40 41 42 43 42 41 40 40 40 39 38 39 40 41 42 43 43 43 42 42 42 42 42 41 40 39 39 38 38 37 36 36 35 35 34 33 33 33
39 40 40 41 42 42 43 43 42 41 40 40 39 39 38 38 40 40 41 42 43 43 42 42 42 42 42 42 39 39 39 39 39 37 36 35 35 35 34 34 33 33
40 39 39 41 41 41 41 41 41 41 41 40 39 39 38 39 40 40 41 42 42 43 42 42 42 42 43 43 41 39 39 40 39 37 36 35 36 36 34 34 33 33
41 39 39 39 39 39 38 38 40 40 40 40 40 39 39 39 40 41 42 42 42 42 42 42 42 43 44 43 41 39 38 37 36 35 35 36 37 36 35 34 34 34
39 39 38 37 36 36 36 37 39 40 40 40 40 40 39 40 41 41 42 42 42 42 42 42 43 41 40 41 41 39 35 33 32 32 35 37 37 36 35 35 35 35
37 37 36 35 34 34 35 37 38 39 40 40 40 41 41 41 41 42 42 42 42 42 42 43 42 38 37 41 42 38 34 32 31 32 34 36 36 36 35 35 36 36
34 34 35 34 34 35 36 37 38 39 40 40 41 41 41 41 41 41 42 42 42 42 41 41 40 37 37 40 39 35 32 32 32 32 33 35 35 35 35 35 36 36
29 30 31 32 33 34 34 36 37 38 39 39 39 39 38 38 38 38 39 39 39 40 40 39 37 35 36 36 34 32 30 30 30 30 31 33 34 34 35 35 36 37
24 25 26 27 28 29 30 32 33 34 35 35 35 34 34 34 34 35 35 35 35 36 37 36 34 33 33 32 31 30 29 28 27 28 30 32 33 34 35 36 37 37
20 21 22 22 23 24 25 26 27 28 29 30 30 30 30 30 31 31 31 32 32 33 34 34 31 30 30 29 28 28 27 26 26 27 30 32 33 35 36 37 37 37
20 21 21 22 22 22 22 23 23 24 24 25 26 26 26 27 27 27 28 28 29 30 30 29 26 24 24 25 25 25 24 25 27 29 31 32 34 35 36 37 38 38
22 22 23 23 23 23 23 23 22 22 22 23 23 24 24 25 25 25 25 25 25 26 26 24 23 23 23 23 24 24 25 27 28 30 32 33 35 35 36 37 39 39
22 23 23 22 23 23 23 23 22 22 22 22 22 23 24 24 24 24 24 23 22 22 21 20 23 27 27 25 26 26 27 28 29 31 32 34 35 36 37 38 40 40
23 23 22 21 21 21 21 21 21 21 21 21 22 22 23 24 25 24 24 23 21 21 20 19 22 26 28 28 28 28 28 29 30 31 32 34 35 36 38 39 41 41
23 22 20 19 19 18 19 19 20 20 21 21 22 22 23 24 24 24 24 23 22 22 22 21 22 25 28 29 29 29 29 29 30 31 32 34 35 37 39 40 41 42
21 20 19 19 19 19 19 19 20 20 21 21 22 22 23 24 24 25 25 24 24 24 23 23 23 25 27 28 29 29 28 29 30 30 32 34 36 38 40 42 43 44
21 21 22 22 22 22 22 21 22 22 22 23 23 23 24 24 25 26 26 26 26 25 24 24 23 24 26 27 27 27 27 28 29 31 33 36 38 40 42 43 44 44
24 24 24 25 25 25 25 25 26 26 26 26 25 25 25 25 26 27 28 28 28 27 27 26 25 25 25 25 26 27 29 31 33 35 37 39 40 42 43 44 45 45
25 26 27 27 27 27 26 27 27 28 27 27 26 25 25 26 26 27 29 29 30 30 30 29 28 28 28 29 31 34 35 37 38 39 39 39 41 43 44 45 45 44
Wind_Direction
267 268 269 269 269 268 268 268 268 268 268 270 271 271 272 273 273 273 274 274 275 275 275 276 276 276 275 275 274 274 274 275 276 277 278 275 272 271 270 270 267 263
268 269 271 271 272 272 272 272 271 271 271 272 272 272 272 272 273 273 274 275 275 276 276 275 275 275 275 274 273 272 272 273 275 276 276 274 270 269 269 268 266 262
267 269 270 272 273 274 274 274 273 273 272 272 272 272 272 273 274 274 275 275 275 275 275 275 274 274 274 273 272 271 272 273 274 274 274 271 268 268 267 266 264 261
266 268 269 271 272 273 273 273 273 274 273 273 272 272 273 273 273 273 274 275 275 274 274 274 274 273 273 272 271 272 272 274 274 273 272 269 268 267 265 264 262 259
267 268 268 269 270 271 272 273 273 274 274 274 273 273 272 272 272 272 273 274 275 275 274 274 274 273 273 272 272 272 273 273 273 271 270 268 267 265 263 262 260 257
268 268 268 269 270 270 271 271 272 272 273 274 273 273 272 272 271 271 272 274 275 275 275 274 274 274 274 273 273 273 274 273 271 270 268 267 265 263 260 259 257 256
269 269 269 269 270 269 269 269 269 271 272 273 273 273 273 272 271 271 273 274 275 275 275 275 275 275 275 274 274 274 273 272 271 269 268 266 263 259 257 256 256 255
268 269 269 269 269 269 268 267 268 269 271 272 272 273 273 273 272 272 273 274 274 275 275 275 275 275 275 275 275 275 273 271 270 269 267 264 260 256 255 254 254 254
268 269 269 268 267 268 267 267 267 268 270 271 272 272 272 272 272 272 272 273 273 274 274 274 275 276 276 276 275 273 272 271 270 269 266 260 256 253 253 253 253 254
268 269 269 267 266 266 266 265 266 268 270 272 272 272 272 272 271 272 272 272 273 274 275 276 276 276 277 277 276 272 271 271 269 266 262 256 252 250 250 251 252 254
267 268 268 266 264 263 262 263 266 269 271 272 272 273 272 272 272 272 272 273 273 274 275 275 275 276 277 277 277 276 275 271 266 261 256 252 249 248 248 250 252 254
264 265 266 265 263 262 262 263 266 269 271 272 273 273 273 273 273 272 272 273 273 273 274 274 275 276 276 276 280 282 278 269 262 256 251 248 246 246 248 250 252 254
263 263 263 263 262 262 263 265 267 269 271 272 273 274 274 274 273 272 272 272 272 272 272 272 274 272 268 271 278 279 273 266 261 255 249 247 246 246 248 250 252 254
264 265 265 266 266 267 267 268 270 271 272 273 274 275 275 274 273 272 271 271 271 272 272 271 272 270 266 270 274 273 269 266 261 254 248 246 246 247 249 251 253 255
269 270 271 271 272 272 272 273 273 273 273 273 273 273 273 272 272 271 271 271 272 273 273 272 272 271 271 272 272 271 269 265 259 253 246 244 246 248 250 252 253 256
271 273 273 274 275 274 274 274 274 274 274 273 273 272 272 271 271 270 270 270 269 269 271 273 273 273 273 271 269 267 265 260 255 249 245 245 247 249 250 252 255 258
274 275 275 275 275 276 276 277 277 277 277 276 275 275 274 272 271 270 269 269 268 268 269 270 270 270 269 267 264 259 257 255 252 247 245 247 249 250 252 255 257 261
277 278 278 277 276 276 277 278 279 280 280 280 279 278 277 275 273 272 269 268 267 266 266 266 266 265 263 262 261 257 254 254 251 249 249 249 250 253 255 257 260 263
279 280 279 278 276 276 276 275 276 278 280 281 282 282 281 279 276 274 270 268 266 264 263 262 263 265 266 264 262 259 256 254 252 251 252 252 254 256 258 261 263 265
280 281 280 278 277 276 276 277 277 278 279 281 282 283 283 281 280 277 273 269 267 264 261 254 252 258 264 265 263 260 258 256 254 253 253 255 257 259 261 263 264 267
279 279 278 278 278 278 279 280 281 280 280 280 280 280 281 281 281 279 275 271 267 264 261 254 247 251 258 262 263 262 260 258 256 255 256 257 260 262 263 265 267 269
275 275 276 277 280 283 284 285 285 283 282 280 280 279 279 279 279 277 275 271 267 263 261 257 251 252 256 259 261 262 261 259 258 258 259 261 263 265 266 267 269 270
270 273 277 281 284 286 287 288 289 289 287 284 282 281 280 279 278 275 273 269 267 264 261 258 254 254 256 258 260 262 262 262 263 263 264 265 266 267 267 268 269 270
272 277 281 284 287 288 290 293 294 294 293 291 288 286 283 281 279 277 274 271 267 263 260 259 258 258 260 262 264 265 266 266 266 266 266 266 266 266 267 268 269 271
278 281 284 285 287 288 289 291 291 290 290 289 288 285 283 281 280 278 276 274 271 268 266 264 263 263 264 267 268 270 270 270 269 268 266 266 266 266 267 268 270 271
279 281 283 284 285 285 285 284 284 284 284 284 283 281 280 279 279 278 278 277 276 276 275 273 271 271 273 274 275 275 273 272 270 268 267 266 266 267 267 268 270 271